This is the latest recevied weather packets stored in our database for station/object 9W2SSS-1. If no packets are shown the sender has not sent any weather packets the latest 10 day(s).
| Time | Temp. | Humidity | Pressure | Rain* | Wind** | Luminosity | Snow |
|---|---|---|---|---|---|---|---|
| 1777298584 | 30° C | 67% | 1009.2 hPa | - | - | - | - |
| 1777294984 | 30.56° C | 66% | 1009.1 hPa | - | - | - | - |
| 1777292583 | 30.56° C | 67% | 1008.6 hPa | - | - | - | - |
| 1777291383 | 31.11° C | 64% | 1008.5 hPa | - | - | - | - |
| 1777288983 | 31.11° C | 63% | 1007.4 hPa | - | - | - | - |
| 1777287782 | 31.67° C | 62% | 1006.9 hPa | - | - | - | - |
| 1777285386 | 32.22° C | 60% | 1006.6 hPa | - | - | - | - |
| 1777281785 | 32.22° C | 62% | 1006.5 hPa | - | - | - | - |
| 1777278185 | 32.78° C | 60% | 1006.4 hPa | - | - | - | - |
| 1777276985 | 32.78° C | 60% | 1006.3 hPa | - | - | - | - |
| 1777274585 | 32.78° C | 61% | 1006 hPa | - | - | - | - |
| 1777273385 | 33.33° C | 60% | 1006.1 hPa | - | - | - | - |
| 1777272185 | 33.89° C | 58% | 1006.4 hPa | - | - | - | - |
| 1777270985 | 34.44° C | 56% | 1006.6 hPa | - | - | - | - |
| 1777269785 | 35° C | 54% | 1006.9 hPa | - | - | - | - |
| 1777268585 | 35.56° C | 51% | 1007 hPa | - | - | - | - |
| 1777267385 | 35.56° C | 50% | 1007.4 hPa | - | - | - | - |
| 1777266184 | 36.11° C | 50% | 1007.6 hPa | - | - | - | - |
| 1777263784 | 36.67° C | 46% | 1008.2 hPa | - | - | - | - |
| 1777262584 | 37.78° C | 43% | 1008.6 hPa | - | - | - | - |
| 1777261384 | 38.89° C | 42% | 1009 hPa | - | - | - | - |
| 1777260184 | 39.44° C | 42% | 1008.8 hPa | - | - | - | - |
* Rain since midnight (hover to see other rain measurements)
** Current wind speed in m/s (hover to see current wind gust speed)